Theta_e
292 288 287 285 288 290 289 286 287 288 286 285 284 282 282 282 284 285 287 289 288 289 287 287 286 287 290 292 293 294 290 288 289 291 292 292 293 294 294 294 295 295 296 297 297 297 298 298 298 302 307 311 311 312 314 316 317 319 321 320 321 323 323 323 323 321 323 323 324 324 325 325 326 325 325 326 327 329 331 332 332 331 331 332 330 329
290 287 287 288 289 289 288 286 286 287 286 286 284 284 283 283 286 287 290 289 288 289 285 282 285 287 288 290 291 291 288 290 291 291 291 292 293 293 293 294 295 296 295 294 295 295 294 296 296 298 304 307 309 311 313 315 317 319 320 320 321 321 322 323 324 323 322 324 326 325 326 327 326 323 322 323 324 326 327 329 331 331 332 332 331 327
288 286 289 289 287 286 286 286 286 286 285 283 285 282 284 284 283 286 288 287 288 289 285 282 287 290 290 291 292 291 292 292 290 291 293 292 292 292 292 293 294 294 295 294 294 293 294 295 295 296 301 306 310 312 313 315 316 316 318 319 319 320 322 323 323 323 322 322 321 323 320 325 319 316 320 320 318 320 323 326 328 330 331 332 331 330
287 287 290 288 287 288 286 285 286 285 283 283 283 285 283 282 285 285 286 287 287 287 287 285 286 290 290 288 290 291 290 290 290 290 291 291 292 293 294 294 294 294 294 294 295 295 294 293 293 293 297 303 307 308 308 311 314 316 317 318 319 319 320 322 322 320 322 319 315 314 311 312 319 316 312 313 309 314 318 322 324 327 330 331 331 331
286 289 288 288 286 289 287 286 287 287 286 283 280 281 283 286 286 284 287 286 282 287 284 284 285 286 280 281 284 286 283 286 287 284 286 289 292 293 293 292 292 293 294 294 294 293 291 292 294 296 297 297 302 306 309 311 314 317 317 318 319 319 319 320 318 318 316 313 310 305 305 306 309 308 308 308 312 314 316 319 320 323 326 328 330 331
287 288 287 289 287 286 287 286 285 287 284 283 283 284 285 282 286 287 282 285 278 281 282 282 279 275 277 280 281 285 282 286 283 285 287 287 286 286 288 291 291 292 292 293 295 295 292 293 293 293 293 295 299 304 308 310 313 313 315 315 316 316 316 317 317 316 315 316 316 311 313 312 309 312 309 312 315 314 314 317 319 319 322 325 327 329
287 289 289 289 289 287 286 285 285 286 283 284 286 284 284 283 284 285 286 282 280 280 283 281 281 276 279 281 285 283 282 286 286 284 286 286 288 286 288 289 289 290 291 290 291 292 292 293 293 293 294 295 297 300 302 303 306 309 309 312 314 316 315 315 314 314 314 314 314 315 317 317 316 315 315 311 307 313 311 309 316 320 320 322 324 326
290 289 287 287 288 287 286 287 287 286 285 285 284 282 284 286 286 284 282 283 280 279 282 279 277 278 280 283 281 280 282 285 285 288 288 288 287 288 289 289 287 289 289 291 291 292 292 293 294 296 295 294 295 296 299 301 302 307 309 310 312 312 311 312 312 312 315 316 314 314 314 315 316 316 316 312 310 304 306 310 312 315 318 320 322 324
289 288 287 287 283 284 287 285 287 284 284 284 285 284 284 285 283 281 281 280 281 282 281 278 283 281 277 281 282 281 285 284 286 285 286 288 288 290 293 293 290 287 288 289 292 292 292 294 294 294 295 294 295 296 297 299 300 302 303 305 306 308 308 308 310 311 312 315 315 315 314 313 314 315 314 305 303 307 303 307 307 310 314 317 319 321
290 290 288 288 287 286 285 287 284 288 289 287 284 285 284 283 282 280 279 281 279 279 274 278 281 276 278 279 280 279 285 283 282 285 286 287 287 289 293 293 293 292 292 291 291 292 293 293 292 292 293 294 293 293 295 296 297 299 299 302 304 306 306 307 308 310 311 311 311 312 312 313 314 310 306 303 305 304 301 306 306 307 310 314 316 318
290 292 290 289 288 286 286 286 284 286 289 288 286 288 284 281 280 278 278 276 276 272 273 277 277 279 277 280 280 283 285 281 283 284 283 287 289 291 291 292 294 294 293 292 292 291 292 291 291 292 294 292 291 290 293 294 296 297 298 299 301 303 302 303 307 308 309 309 310 312 312 312 312 310 307 305 305 302 300 304 305 305 307 309 313 315
288 289 291 289 290 287 288 288 286 286 286 287 284 280 284 281 278 278 271 275 273 267 272 276 278 279 275 276 281 282 282 282 287 288 288 287 288 290 290 292 293 293 293 293 292 294 293 295 294 292 293 292 291 292 293 294 295 296 296 297 299 299 300 301 303 304 307 308 309 310 311 311 311 310 308 307 308 306 305 305 305 304 303 305 306 310
287 289 287 289 290 290 286 290 288 286 283 285 283 283 276 271 269 274 267 274 271 269 279 277 278 279 279 282 284 284 286 284 283 284 288 289 287 288 291 292 292 291 291 294 294 293 294 292 292 293 292 290 291 293 292 293 293 294 295 295 297 299 298 300 300 303 305 305 307 308 309 309 309 308 308 308 308 307 306 306 305 303 304 304 303 306
285 283 287 289 291 291 290 288 285 286 285 283 285 277 272 270 269 264 259 262 266 273 277 279 280 278 279 282 287 289 291 287 286 286 285 286 287 289 291 291 292 292 290 290 290 290 291 292 292 291 291 291 291 290 290 291 293 293 295 294 296 298 297 297 299 301 303 304 306 306 307 308 307 306 307 307 308 306 305 305 305 305 305 305 305 305
278 280 286 289 288 290 290 289 291 287 286 286 282 284 279 268 265 265 263 271 271 271 275 276 275 274 276 286 286 285 287 287 285 285 284 284 286 287 287 288 287 289 290 288 290 292 293 294 292 293 292 292 291 291 291 290 291 292 293 294 295 297 297 297 299 300 302 304 304 304 305 305 304 306 306 307 306 306 304 303 304 305 304 305 305 305
284 280 283 287 288 290 290 289 287 286 287 282 280 281 278 277 274 272 267 266 266 270 271 275 276 276 281 285 285 286 285 286 285 284 282 285 282 284 286 288 289 289 291 291 291 294 294 292 292 293 294 293 291 291 291 291 292 293 294 293 296 297 297 297 298 300 301 303 302 302 303 304 303 303 303 304 302 303 303 303 303 304 304 304 304 303
281 281 285 287 288 289 289 288 289 287 282 283 284 280 280 280 279 271 271 273 272 269 273 270 278 281 280 285 287 283 284 285 284 285 284 287 286 285 289 288 288 290 291 292 293 293 294 294 294 293 293 295 295 295 294 294 292 293 294 294 295 296 295 296 297 299 299 300 300 301 301 302 302 302 303 304 303 302 301 302 303 303 303 302 301 301
283 279 284 286 287 288 288 287 286 285 285 285 280 282 282 283 279 277 273 265 263 269 272 273 275 276 276 277 281 284 285 284 286 288 287 288 286 288 289 290 290 291 291 291 291 291 292 291 292 294 293 292 294 295 295 295 292 292 292 293 295 295 296 297 297 297 298 298 299 299 300 301 302 303 303 303 302 301 301 301 301 300 300 301 300 300
285 281 283 285 285 288 286 290 288 287 287 283 281 284 285 278 278 277 271 269 266 265 267 272 273 274 277 280 279 284 282 284 286 286 287 288 288 289 290 291 290 290 292 294 293 294 295 294 294 294 295 294 292 292 293 294 293 292 292 293 294 296 297 296 297 296 297 297 299 300 300 300 301 301 301 301 300 298 300 301 300 300 301 298 297 297
286 279 279 285 286 287 286 287 284 284 287 287 287 285 284 280 275 274 276 271 272 267 264 271 270 277 279 280 279 285 282 284 286 286 286 287 288 290 290 290 291 292 292 291 291 292 293 293 293 293 294 295 296 294 293 292 290 292 292 292 293 294 294 294 295 294 296 296 296 298 298 299 300 300 300 300 299 299 300 301 300 300 298 299 296 298
284 282 276 283 284 286 284 285 285 286 284 283 284 282 285 280 282 279 277 274 275 263 263 266 271 274 277 281 283 287 284 286 287 289 288 288 290 290 290 292 292 293 293 292 292 291 293 293 294 294 292 292 290 288 289 289 291 292 291 291 292 293 295 295 295 293 296 293 296 295 297 298 296 297 298 297 297 299 300 300 299 299 298 292 297 294
283 282 278 282 283 282 283 284 286 288 291 288 287 284 286 281 277 275 276 278 269 272 269 264 274 274 280 281 286 285 284 287 288 290 289 288 290 290 291 290 288 293 292 291 291 290 292 292 294 295 294 290 291 294 293 293 290 290 290 291 291 291 294 294 295 294 295 294 295 295 297 296 293 296 295 296 296 297 298 298 297 296 292 294 296 292
286 281 282 276 282 286 284 287 284 287 285 286 286 284 286 284 281 274 273 274 272 275 273 269 268 277 283 284 283 282 283 285 286 287 289 288 288 289 288 287 288 289 292 292 292 293 293 291 291 291 291 292 291 292 290 291 293 293 292 291 289 290 294 293 294 293 292 293 293 294 294 293 294 294 292 293 295 294 296 295 293 291 294 294 294 291
290 279 278 279 277 278 283 283 284 283 287 287 285 282 284 284 282 280 275 276 280 273 274 272 271 276 281 283 284 286 284 283 284 285 288 287 286 285 286 288 289 289 290 290 290 289 290 291 292 292 294 295 294 293 293 292 291 292 291 291 291 292 294 294 293 291 290 291 292 292 291 292 293 291 291 292 294 294 294 293 293 291 293 294 293 293
282 280 282 271 272 277 277 281 282 285 285 282 281 282 284 283 279 276 274 272 275 275 278 276 275 279 282 283 284 284 286 287 286 286 285 290 289 289 288 288 288 289 291 291 292 293 293 293 293 293 293 293 293 293 293 292 292 291 291 291 291 292 293 293 292 291 292 290 291 291 290 291 290 291 291 292 293 293 293 292 291 290 292 292 292 293
285 281 281 274 275 274 272 276 279 282 282 282 280 283 284 286 282 282 279 277 276 275 278 275 278 281 284 284 286 286 284 285 284 284 283 286 288 289 289 291 291 292 292 292 292 292 292 292 293 294 293 294 294 293 292 292 291 291 290 291 289 291 292 292 289 290 291 291 290 292 291 291 290 291 292 292 292 292 292 291 291 291 291 291 293 292
280 281 283 283 281 279 281 280 282 284 282 283 282 284 283 285 285 286 279 276 280 278 274 280 283 282 282 284 284 287 284 285 287 288 289 287 289 291 293 292 291 290 289 290 290 291 291 293 293 292 293 292 292 292 292 292 293 293 293 294 292 290 289 291 290 290 290 291 289 291 292 292 292 292 292 292 292 291 291 291 291 290 292 290 291 292
279 282 283 282 283 284 282 281 281 288 285 286 284 283 285 285 284 284 283 282 285 277 279 283 282 281 285 284 284 285 284 284 286 287 289 291 293 291 289 287 289 289 290 290 290 291 291 291 291 292 292 292 292 292 293 293 292 292 293 293 294 292 290 291 289 289 289 289 290 291 292 293 292 292 292 291 291 291 291 291 290 290 290 288 290 291
284 282 282 282 282 282 280 281 282 284 285 286 285 284 283 284 283 283 285 287 284 282 282 285 282 284 287 285 287 288 287 289 289 290 290 289 288 289 290 290 288 288 288 289 290 290 290 291 291 291 291 291 292 292 293 293 293 293 293 292 292 291 292 289 289 290 289 288 289 291 292 292 292 292 291 290 290 291 291 290 290 289 289 288 289 290
286 280 282 282 282 282 282 282 282 285 282 282 283 284 285 284 284 286 286 288 286 285 286 284 281 284 287 284 288 289 287 287 289 289 289 290 291 289 288 287 288 287 287 289 289 290 290 290 290 290 290 291 291 292 292 293 293 293 292 293 293 292 291 289 290 289 289 289 290 291 291 291 290 291 290 290 291 291 290 290 289 288 288 289 289 289
287 282 286 283 281 280 281 282 282 283 284 283 281 281 283 284 285 286 287 286 285 284 284 283 283 284 289 288 288 291 291 290 288 290 291 290 288 287 287 287 288 288 288 288 289 290 289 289 289 289 290 290 291 291 291 292 292 292 292 292 292 292 292 290 290 290 289 290 290 289 289 289 289 289 289 290 290 290 290 290 289 288 288 288 288 288
287 283 282 282 280 277 281 281 281 282 281 281 281 282 282 282 282 283 283 283 283 284 286 283 283 285 289 289 289 289 289 289 289 289 289 290 288 285 287 287 287 288 288 288 288 288 288 288 289 289 290 290 290 290 290 291 291 290 291 291 291 291 290 290 290 290 291 291 291 290 289 288 289 288 289 288 289 289 289 288 288 288 288 288 288 288
286 284 283 281 279 277 282 282 279 279 280 279 282 285 286 284 284 283 285 284 287 288 284 282 285 291 289 287 288 288 288 288 287 288 288 287 286 286 287 288 288 287 288 288 288 288 287 287 288 288 288 289 290 290 290 289 288 289 290 290 290 289 289 289 289 290 290 290 290 290 290 289 289 289 288 289 288 288 288 287 287 288 288 288 288 287
285 284 282 284 279 279 277 280 282 281 276 279 290 289 289 287 286 283 284 286 287 289 287 290 290 291 288 287 289 287 287 288 289 290 289 289 287 286 287 286 286 286 286 286 286 287 288 289 288 288 287 288 288 288 288 287 287 288 288 288 288 288 288 288 289 289 289 289 289 289 289 288 288 288 288 288 288 287 287 287 288 288 288 288 287 287
286 286 283 284 282 280 278 282 280 276 278 290 290 291 292 291 289 287 289 290 290 289 290 290 290 291 292 291 290 289 288 289 287 289 288 286 287 287 287 287 286 285 286 286 287 287 286 287 288 288 288 289 288 287 288 288 287 287 287 286 286 286 286 287 287 288 288 288 288 288 288 288 288 288 288 288 287 287 287 287 287 287 287 287 288 287
287 286 283 283 284 282 279 281 275 277 286 286 288 288 287 289 288 288 287 289 289 290 290 290 291 293 293 290 285 286 287 285 283 285 286 286 285 286 285 287 286 285 286 287 287 288 288 288 288 287 288 288 287 288 287 287 287 286 287 286 285 286 286 286 286 287 287 287 288 287 287 287 287 287 287 287 287 286 287 287 287 287 287 286 286 286
290 287 286 283 286 280 281 281 280 286 285 286 286 284 287 285 284 286 284 287 290 290 291 291 292 292 291 283 284 282 282 284 286 285 284 284 285 286 288 287 287 286 284 285 285 287 288 287 287 287 286 286 286 286 287 287 286 285 285 285 286 286 286 286 286 287 287 287 287 287 287 286 286 286 287 287 286 286 287 287 287 287 285 285 286 286
289 287 285 284 282 285 281 279 279 279 276 282 286 284 286 288 289 289 288 285 285 286 291 291 290 291 286 282 283 282 283 285 283 285 287 285 284 286 285 285 283 283 283 284 285 285 285 286 286 286 286 286 286 286 286 285 285 284 284 285 285 285 285 285 286 286 286 286 286 286 286 286 285 285 286 286 286 286 287 286 286 286 285 285 286 285
287 287 285 286 282 283 281 278 278 276 280 286 284 287 285 286 290 286 285 281 284 285 284 288 289 288 287 285 284 283 284 281 281 283 286 283 283 284 284 283 283 284 284 285 285 285 286 286 285 285 285 284 285 286 285 284 283 283 284 284 284 284 284 285 286 286 286 286 285 285 285 285 284 284 284 285 285 286 286 286 286 285 282 283 284 285
285 285 285 283 281 283 282 280 277 281 279 283 284 282 283 284 289 288 277 276 284 282 283 286 288 287 283 284 282 282 284 278 281 282 282 284 285 283 285 285 284 283 284 283 283 284 285 285 284 284 285 285 286 286 285 284 283 283 283 284 284 284 284 285 286 285 285 285 285 284 284 284 283 283 283 284 284 284 285 284 283 283 282 282 281 282
284 283 284 281 283 283 283 281 282 281 284 282 283 282 282 286 289 281 276 281 282 283 281 283 284 283 283 283 280 281 281 281 282 283 282 282 283 283 283 283 284 283 284 284 284 284 283 283 283 284 285 286 286 285 284 283 283 283 283 283 283 284 285 285 285 284 284 284 283 283 283 283 282 282 282 282 282 282 282 281 282 281 279 280 279 277
284 285 284 285 282 281 282 281 281 283 285 283 283 286 284 287 280 279 286 282 284 282 281 281 283 281 283 283 282 281 284 281 281 281 282 283 283 283 282 283 282 283 283 283 284 283 283 282 282 283 283 283 284 284 283 282 282 282 283 282 283 284 285 284 283 283 283 283 282 282 282 281 281 279 280 280 279 280 280 278 275 277 278 278 276 277
284 283 280 282 284 284 282 279 279 276 284 287 287 284 283 282 282 287 282 283 283 284 282 280 281 282 282 282 281 281 281 282 282 283 282 282 282 282 283 283 283 283 283 284 284 283 283 281 282 283 283 284 283 283 282 278 280 281 282 282 283 284 284 283 282 282 281 281 281 281 281 280 279 279 278 278 278 277 279 276 274 274 274 275 275 276
288 282 282 284 287 279 280 277 279 286 287 287 290 284 282 285 281 283 286 282 282 280 282 282 280 280 281 283 283 281 281 282 282 281 282 282 282 282 281 282 282 282 283 283 283 283 281 282 282 283 283 284 284 281 280 279 280 280 280 281 284 283 282 281 281 280 279 280 280 280 280 279 278 277 276 276 276 275 276 276 274 273 275 275 276 276
285 283 286 281 286 283 280 284 286 285 285 285 283 283 280 283 282 284 284 286 284 283 280 284 283 280 280 281 281 282 282 282 283 281 282 281 281 281 281 282 282 282 282 282 283 282 281 282 282 282 282 283 282 283 281 278 280 280 280 282 282 281 281 280 279 278 278 278 279 278 278 277 276 276 275 274 273 275 276 275 272 274 273 274 276 276
280 282 280 281 282 283 282 282 282 281 283 282 281 282 282 282 282 282 285 285 283 281 281 282 281 281 280 280 282 281 282 282 281 280 280 280 281 281 281 281 281 281 282 281 282 282 282 282 281 281 281 282 281 282 282 280 277 279 281 282 281 280 279 278 277 277 278 278 278 277 276 275 276 275 274 273 272 273 274 275 275 275 274 273 274 275
277 279 282 280 279 283 278 281 281 283 281 280 282 281 281 281 281 281 282 282 281 282 282 282 283 283 282 281 282 282 282 281 281 280 280 280 279 280 281 281 281 281 281 280 281 281 281 280 280 280 280 280 281 280 281 281 281 280 280 280 280 279 277 276 276 277 277 278 277 276 274 274 276 276 275 272 272 271 272 273 273 274 275 275 276 277
279 279 282 277 278 281 277 279 281 279 278 279 279 283 282 281 281 281 282 282 282 281 281 281 281 281 280 281 281 280 281 281 280 279 279 279 280 280 280 280 279 279 279 279 279 279 278 278 278 279 279 279 280 280 280 280 280 280 279 279 279 277 275 275 276 277 277 277 276 275 274 274 276 276 275 273 272 272 272 272 272 274 276 278 279 279
278 283 274 277 280 276 279 281 279 280 280 280 280 279 279 281 281 281 281 282 282 282 281 281 280 280 280 281 280 279 278 279 279 278 278 278 278 278 278 278 278 277 278 277 277 277 277 277 277 278 278 278 279 279 279 279 279 279 278 278 277 275 274 275 276 276 276 276 275 275 275 275 275 274 273 273 272 271 273 273 274 276 276 278 279 279
280 279 277 279 273 273 277 280 279 278 276 280 280 279 279 280 281 280 279 279 279 279 280 279 279 278 278 278 278 276 275 277 277 277 276 277 277 277 276 276 276 275 275 275 276 276 276 276 276 276 277 277 278 278 278 278 278 278 278 276 275 274 273 275 276 276 276 276 275 275 274 274 273 272 272 272 271 272 274 278 281 279 278 277 281 283
281 280 279 275 276 276 279 281 284 282 281 281 281 278 277 278 280 279 277 276 276 276 277 277 277 276 277 276 275 274 273 275 275 274 273 273 273 274 274 273 273 273 273 274 274 275 274 274 275 275 275 275 276 276 276 276 277 277 277 276 275 273 273 274 275 276 277 276 276 276 275 274 273 272 271 272 273 273 274 275 278 283 283 283 282 282
Wind_Speed
1 5 6 7 8 9 7 6 3 2 7 5 4 5 3 4 1 2 2 2 1 1 5 4 5 6 11 11 12 11 3 4 6 9 10 9 9 8 8 10 11 11 16 6 6 7 9 9 9 9 7 8 7 7 7 9 10 11 12 11 13 11 9 8 8 8 9 9 7 7 10 11 8 7 7 7 7 7 8 8 9 9 8 8 11 12
4 5 7 8 8 7 5 6 8 8 3 5 5 4 1 1 2 1 1 2 2 1 1 2 3 9 12 12 12 9 3 9 11 11 11 12 11 9 9 12 11 13 6 6 7 6 5 6 7 6 7 7 8 11 10 12 14 14 11 12 12 8 10 11 11 10 10 11 11 10 10 9 7 7 7 8 7 8 6 7 8 9 9 9 9 9
2 7 9 6 2 6 5 4 2 5 5 3 5 4 4 2 2 3 1 2 2 1 6 2 5 11 10 12 13 10 11 7 5 7 9 9 10 9 9 11 12 9 13 6 8 5 6 6 5 5 6 7 11 10 11 11 8 7 9 10 9 9 11 11 11 10 11 9 7 8 6 8 4 4 5 5 4 4 6 7 8 8 8 9 9 9
2 6 10 3 6 7 3 3 7 6 6 5 4 2 4 2 2 1 2 1 3 1 2 3 6 13 6 6 12 9 5 6 5 6 10 8 10 12 13 9 8 10 10 11 8 8 6 6 5 4 6 10 8 6 6 7 10 9 9 9 10 10 10 10 11 11 9 7 5 4 3 4 6 6 4 5 4 5 7 9 7 8 9 9 9 9
7 1 1 8 4 6 5 2 6 5 3 1 2 3 3 1 1 2 1 1 0 1 2 3 4 10 4 4 3 2 3 3 4 6 6 8 9 9 7 8 5 9 9 10 10 7 5 5 7 8 8 4 6 8 9 9 10 9 13 13 12 10 10 9 8 9 6 5 4 3 3 3 2 2 2 4 6 7 6 6 8 9 6 8 9 9
2 2 3 6 4 4 6 3 4 8 1 1 3 4 3 3 5 0 2 2 5 2 4 3 3 4 4 6 8 9 6 7 4 5 8 7 5 4 6 10 6 8 6 8 11 10 5 6 5 4 4 6 7 8 9 7 7 6 6 6 7 6 6 8 9 8 7 8 8 7 7 6 5 7 6 10 12 8 9 10 5 5 8 8 8 9
3 1 1 5 6 3 4 3 3 5 6 3 4 4 3 5 4 5 1 3 2 0 2 3 1 6 6 5 6 6 8 11 9 3 7 7 7 5 6 6 6 7 6 5 7 6 6 7 5 5 5 6 7 6 1 3 5 5 5 6 7 8 7 7 7 8 8 7 7 11 12 11 11 11 10 6 5 7 6 5 7 8 7 9 9 9
1 1 5 4 5 4 4 2 3 8 8 3 1 4 6 6 5 4 5 3 1 1 3 5 3 2 9 8 5 4 6 8 8 9 10 8 7 7 6 6 5 6 5 5 6 5 4 5 5 7 3 2 4 2 1 3 3 5 6 5 6 5 5 5 5 7 9 10 9 9 9 9 10 11 11 7 6 4 5 7 8 6 7 8 9 10
2 2 3 3 2 3 6 3 5 4 4 2 2 6 3 4 4 5 5 5 0 2 6 4 0 1 5 8 4 3 5 7 9 7 7 7 7 6 6 6 4 4 4 4 6 5 5 5 5 4 5 4 1 0 2 3 3 3 3 4 4 5 5 4 6 7 8 9 9 10 8 9 9 9 8 4 4 5 4 6 5 6 7 7 9 10
2 1 3 6 5 5 3 0 3 4 4 1 6 7 7 7 6 4 4 4 1 1 5 2 1 2 9 6 6 3 1 5 4 3 5 5 6 6 5 5 4 3 3 2 2 3 4 4 3 3 3 2 2 1 0 1 1 2 3 4 4 5 5 5 6 7 7 7 7 8 8 11 10 7 5 3 5 5 4 7 6 6 7 7 8 10
1 4 5 3 3 3 4 1 2 0 1 9 4 8 7 9 5 3 6 2 3 1 6 5 3 2 5 4 4 3 2 2 1 3 3 5 5 5 5 5 6 6 5 5 6 4 4 3 1 2 4 2 3 2 1 1 1 1 3 4 4 4 3 4 6 6 8 7 7 9 10 12 12 8 6 6 7 5 4 7 7 7 7 7 9 7
2 1 1 1 2 2 3 5 4 2 3 6 3 4 6 4 7 4 5 5 1 5 4 2 1 0 6 6 5 7 4 3 1 1 3 5 5 5 5 6 7 6 6 6 5 7 6 8 6 5 5 4 3 2 1 0 0 1 1 2 4 4 4 4 4 5 6 7 8 8 9 11 10 8 8 9 11 8 9 9 8 6 5 7 6 6
2 2 1 5 3 5 3 9 4 3 3 6 7 7 6 2 4 2 3 1 4 5 1 1 2 1 9 8 7 8 8 5 6 6 2 3 6 5 6 7 7 6 6 6 6 6 7 5 6 6 5 4 3 1 1 2 1 1 1 2 4 5 4 4 4 6 7 7 9 10 9 9 7 7 8 9 9 7 9 8 8 6 8 6 6 7
3 2 2 2 2 3 4 10 2 2 1 4 7 6 5 1 1 2 3 1 5 5 4 1 0 3 4 9 11 15 12 3 6 9 6 3 4 6 6 7 7 6 4 4 4 4 4 4 4 4 5 5 4 2 2 2 1 1 2 2 4 5 4 4 5 6 7 9 9 8 8 8 6 8 8 9 9 8 7 7 8 8 8 8 9 8
3 3 6 6 2 2 3 4 11 8 8 7 1 8 8 8 5 3 3 4 4 4 2 3 1 6 3 1 1 7 4 2 4 5 5 4 6 6 6 5 3 5 5 4 5 5 5 7 5 5 5 5 5 5 5 3 2 2 3 3 4 5 5 5 6 6 8 9 8 7 7 6 5 8 8 9 8 7 7 6 8 8 7 8 8 8
7 3 4 2 1 4 7 1 3 6 4 0 3 6 5 5 6 1 4 3 0 1 2 1 5 4 4 1 6 5 3 4 3 4 3 3 3 4 4 6 5 4 5 5 6 7 7 5 6 6 6 5 4 5 5 5 3 2 4 4 5 6 5 5 5 7 8 8 6 6 6 8 7 7 6 6 5 6 6 7 8 9 8 8 7 5
3 4 2 6 3 3 1 0 0 2 6 4 4 4 4 2 8 6 1 1 1 3 8 2 7 5 8 8 5 2 1 2 1 2 3 1 1 3 5 4 3 3 4 5 5 5 6 7 7 6 6 7 7 6 6 5 4 4 4 4 5 5 4 5 6 7 5 5 5 6 6 6 7 8 9 9 8 7 6 7 7 8 8 6 5 5
10 4 1 3 3 1 1 0 3 4 3 8 2 7 2 2 4 4 3 2 3 3 7 2 6 4 2 5 6 4 2 0 1 2 2 1 2 4 3 2 3 3 3 3 3 2 1 2 4 6 5 4 5 6 7 7 5 3 4 4 5 5 6 6 6 6 5 6 6 6 6 7 8 8 8 7 7 5 6 7 6 5 7 6 6 6
6 2 1 1 0 5 3 1 2 2 2 3 3 4 6 3 1 2 4 2 1 2 6 4 2 4 6 7 3 1 4 4 4 1 5 6 5 4 5 5 4 4 5 7 6 7 7 6 6 5 6 5 4 5 5 6 5 4 4 4 4 8 6 6 5 5 5 5 6 6 7 7 8 7 7 6 5 5 7 8 6 7 8 5 5 5
1 5 2 1 2 1 1 4 9 3 2 2 3 4 1 3 2 4 6 3 5 4 2 8 3 6 6 6 8 7 5 5 6 3 5 5 4 3 3 4 4 4 3 4 5 5 6 6 5 5 7 9 8 8 6 5 4 5 5 4 5 5 5 6 6 5 6 5 5 7 6 7 6 6 6 6 6 7 9 9 8 8 6 7 5 7
4 1 4 1 3 2 3 5 10 11 9 2 2 3 1 1 1 4 1 3 4 5 5 2 7 5 7 7 7 9 7 9 8 8 5 4 2 1 1 1 1 1 2 3 4 4 6 6 7 7 6 6 6 4 5 4 5 5 4 4 4 6 7 7 6 4 6 4 6 6 8 7 5 7 6 6 7 8 9 8 8 8 7 5 8 5
3 2 8 3 1 5 6 2 3 9 9 11 12 12 12 10 4 5 7 3 1 3 4 3 10 2 5 4 9 8 7 9 8 10 7 5 2 1 1 1 2 1 1 2 3 4 5 6 8 8 8 6 8 10 12 10 7 5 4 3 4 5 7 7 9 5 6 5 6 6 7 6 5 6 5 7 7 9 10 8 7 7 5 7 8 6
4 3 8 4 7 9 3 1 2 0 2 2 3 6 5 3 6 5 6 5 2 2 5 3 1 9 6 1 2 4 7 6 6 5 6 5 3 2 1 1 2 3 1 2 3 3 4 4 5 5 6 6 6 6 7 7 8 8 8 7 5 5 9 5 7 5 5 5 5 7 6 6 7 6 6 7 9 9 10 9 7 6 8 9 8 6
5 4 4 1 2 4 3 3 2 1 2 1 1 2 5 6 6 7 3 7 8 2 1 1 2 8 3 3 1 0 1 4 4 5 5 4 3 3 3 2 2 3 5 6 5 3 2 3 4 6 8 10 10 8 7 6 5 7 7 7 7 8 10 9 6 5 5 5 7 6 6 7 7 6 7 9 10 10 9 8 7 6 8 10 8 10
4 3 8 2 2 3 5 3 2 2 1 3 3 3 3 4 4 2 5 1 1 7 8 7 10 7 2 2 1 1 3 4 4 4 2 3 1 3 4 4 4 5 5 4 4 3 2 2 5 5 5 5 5 6 7 8 8 7 8 6 7 7 8 8 7 6 7 5 7 7 7 8 7 7 8 10 9 10 9 8 7 6 9 7 8 8
5 5 8 8 11 10 9 11 14 13 8 2 0 4 5 11 7 5 5 2 5 4 8 6 9 3 2 1 1 1 1 3 4 3 4 2 2 1 4 5 3 1 7 11 13 14 13 10 10 12 11 10 9 8 8 8 7 6 6 6 5 6 8 7 5 6 7 6 7 9 8 9 7 8 10 10 10 10 9 8 8 8 8 8 10 8
3 1 5 8 12 13 12 2 3 11 3 7 6 9 5 5 9 7 4 5 12 5 6 8 9 4 3 4 4 4 4 5 1 1 4 4 3 3 7 11 10 9 11 12 10 9 9 11 11 9 9 8 7 8 7 7 9 8 7 9 6 5 5 7 6 6 6 6 6 8 9 9 9 8 8 9 9 8 7 8 8 7 9 7 8 8
3 4 7 7 9 8 4 3 5 10 12 11 10 9 11 10 10 10 10 13 7 3 10 10 5 5 13 6 5 6 4 1 2 4 7 9 9 7 5 5 8 10 9 8 8 9 9 8 8 9 9 10 10 9 8 6 6 6 7 9 9 8 7 7 6 6 6 6 7 7 10 10 9 8 8 7 7 8 8 8 7 8 7 6 9 10
6 7 4 5 7 3 2 4 7 5 7 9 12 12 12 12 11 14 15 16 7 10 16 9 8 11 17 7 9 10 4 1 2 3 1 2 4 6 6 6 7 5 5 6 6 7 7 8 8 9 9 9 9 10 10 10 9 9 8 6 6 7 8 5 6 7 6 6 7 9 9 9 8 7 8 7 8 8 9 8 7 7 7 7 9 8
3 4 4 4 5 2 2 4 5 10 4 1 6 9 13 14 16 18 18 17 15 13 12 4 6 13 7 4 10 9 4 3 1 0 1 1 2 3 4 4 3 3 4 4 5 6 6 7 7 8 8 9 10 10 11 11 11 11 11 11 9 7 5 6 7 7 7 7 8 9 8 8 8 8 8 8 9 9 8 8 7 6 7 8 9 9
3 3 5 2 4 4 3 1 2 6 6 7 3 5 8 12 16 19 17 11 2 6 7 5 6 13 9 7 5 7 2 2 3 1 3 3 2 2 1 1 1 2 4 4 5 5 5 6 7 7 8 9 10 10 10 9 9 10 11 11 12 12 10 8 8 7 6 8 7 7 7 7 8 7 8 9 8 8 8 9 7 7 8 8 8 9
2 2 2 2 5 3 2 5 1 3 3 1 2 5 10 12 12 8 9 6 6 11 11 7 9 16 5 10 4 3 4 4 6 5 4 1 2 4 4 3 3 4 4 5 5 5 5 6 7 8 8 9 9 9 9 11 12 12 13 12 13 13 12 12 11 12 13 11 10 7 6 7 7 7 8 7 9 8 8 7 7 8 8 8 9 9
1 4 3 2 4 3 0 5 5 4 3 4 9 16 17 6 5 0 0 2 12 12 8 9 15 15 4 5 3 1 3 4 5 5 2 3 2 4 3 2 2 3 4 5 6 6 5 5 5 6 7 6 8 8 8 7 8 9 11 13 13 12 12 12 11 11 12 12 11 12 11 10 10 10 9 9 8 8 7 7 8 8 8 10 9 6
2 3 2 0 4 2 5 5 4 6 9 13 7 5 8 14 14 6 5 12 9 9 8 10 12 7 0 4 5 5 4 3 3 1 2 6 5 2 1 0 1 3 4 4 5 6 6 6 6 6 5 6 7 6 6 5 6 7 7 9 9 9 11 10 12 10 11 11 10 10 10 9 10 10 10 9 9 8 8 7 9 8 7 7 6 7
4 3 2 0 3 2 3 5 3 11 13 5 2 6 11 9 8 13 16 13 9 9 8 9 10 12 10 4 4 5 5 2 5 9 5 4 5 4 2 0 1 3 4 4 5 5 5 5 7 8 9 8 7 7 8 9 5 6 6 6 9 7 8 9 9 10 10 10 10 9 9 10 10 11 11 9 9 8 8 8 9 8 8 7 8 8
6 7 4 2 3 2 2 6 6 5 1 2 2 4 1 2 4 5 7 7 7 10 13 15 17 16 10 2 5 5 7 4 3 2 5 4 3 3 2 1 2 2 4 5 6 8 7 7 7 7 9 8 8 9 7 8 8 9 12 9 7 9 7 8 9 9 9 10 10 9 9 9 11 11 11 10 10 9 9 9 9 10 8 7 8 7
10 4 6 5 6 8 4 7 9 5 11 6 4 3 6 8 6 9 11 11 13 11 12 13 14 11 5 4 6 4 3 5 7 3 3 3 2 1 1 1 2 4 3 5 4 7 8 7 8 8 6 7 7 8 9 9 8 8 10 11 11 10 10 9 10 10 10 10 10 10 10 10 11 12 11 10 10 10 10 10 10 8 5 7 8 8
7 10 5 7 5 8 8 7 3 4 10 14 10 1 4 5 6 6 8 10 3 6 11 13 13 11 4 5 5 6 5 6 3 6 6 6 3 1 1 2 3 4 4 5 4 5 6 7 8 7 6 8 10 9 7 6 7 8 9 10 9 9 11 10 11 10 9 10 10 10 10 10 9 11 12 10 11 11 11 9 8 8 5 7 8 9
2 2 2 11 3 7 7 8 10 10 11 7 3 5 3 6 9 5 5 11 5 8 6 8 9 8 6 8 6 7 6 5 7 4 4 5 2 2 1 2 2 3 4 4 4 6 7 6 6 8 8 7 8 9 6 6 6 7 10 9 9 8 9 10 10 10 11 13 12 11 10 9 9 9 10 11 11 9 11 10 9 8 5 7 7 9
4 5 4 4 5 5 7 10 11 4 4 1 3 2 1 3 7 8 6 8 7 6 8 9 10 9 5 6 8 7 9 8 6 5 4 2 1 1 0 4 4 4 4 4 4 4 6 6 6 6 7 8 9 8 8 6 7 8 9 10 8 10 11 10 10 11 10 11 11 10 10 9 9 9 9 11 11 9 9 8 8 8 7 7 6 8
4 1 6 10 8 10 11 5 1 5 3 2 3 2 1 4 6 9 13 5 2 6 4 6 6 6 8 7 4 6 3 3 4 2 2 1 2 3 1 2 4 4 5 4 4 4 3 4 5 7 8 9 9 8 7 6 7 9 9 9 10 11 11 10 10 10 11 11 11 11 11 9 7 10 10 8 10 10 8 7 7 7 6 8 7 6
5 3 3 6 9 9 9 10 6 2 4 5 1 5 3 6 6 10 3 1 10 5 5 4 6 4 7 8 4 3 5 2 2 1 1 1 1 3 4 3 3 3 4 4 6 4 2 3 4 6 7 7 8 7 7 6 7 8 9 9 11 11 9 9 10 10 10 12 12 11 11 10 9 7 8 9 7 9 10 6 5 6 6 6 5 6
10 8 6 9 5 4 3 6 5 11 3 7 9 2 2 6 6 5 3 1 1 6 8 4 4 5 6 4 3 2 2 1 2 1 1 1 1 3 4 4 4 4 5 5 4 2 2 3 4 6 6 6 5 5 5 5 6 9 9 11 13 11 9 8 8 9 10 11 12 12 11 10 9 9 7 8 7 7 10 8 6 6 4 5 5 6
6 6 3 6 7 7 10 9 7 4 2 7 13 11 4 7 3 6 9 4 1 3 5 5 2 5 5 4 4 2 2 1 0 1 0 1 1 2 3 4 4 4 4 3 3 4 4 5 4 6 7 8 7 4 3 4 6 6 7 12 11 10 10 9 9 9 10 11 11 11 11 10 9 8 7 7 7 7 8 9 7 5 5 5 5 6
6 10 7 9 7 9 8 7 3 0 2 3 1 1 2 1 3 7 5 9 9 5 2 6 5 3 4 3 3 3 2 1 0 1 1 3 4 3 3 4 4 5 5 6 7 5 4 5 7 7 8 6 6 7 5 4 6 9 11 10 6 10 11 10 9 9 11 11 10 10 9 9 9 9 8 7 5 7 8 7 6 7 5 4 5 5
3 2 1 3 3 0 1 0 0 1 1 1 1 0 3 1 1 3 7 9 2 4 5 5 3 5 4 4 6 2 1 0 0 3 3 4 4 5 4 4 4 4 5 5 6 8 7 8 8 7 9 10 5 8 8 5 4 9 13 9 7 8 9 10 11 11 12 11 9 9 8 9 9 7 7 7 6 6 6 6 6 7 6 4 5 5
3 1 1 3 2 6 6 4 4 5 2 1 2 2 3 3 2 2 6 4 4 6 5 4 6 5 5 5 5 4 1 0 0 1 2 2 3 5 6 6 6 5 8 10 8 9 10 9 11 12 11 13 9 6 8 9 8 7 9 11 10 8 8 10 10 11 12 11 10 9 7 8 9 8 7 5 6 6 6 6 5 6 6 5 5 5
4 3 4 2 3 7 4 1 1 2 0 1 1 4 4 5 7 6 6 6 7 5 5 4 4 6 4 5 3 3 0 1 1 3 3 4 5 5 5 5 6 7 6 5 7 6 7 8 9 10 11 12 11 8 8 8 9 9 9 9 10 9 9 10 10 11 12 12 9 9 8 8 9 9 8 7 6 7 7 5 4 5 6 6 6 6
3 6 4 5 6 2 2 1 1 3 4 2 2 2 2 5 9 8 7 8 7 9 7 6 6 4 4 3 3 3 3 2 3 3 3 4 4 4 4 5 6 6 7 7 8 6 8 8 9 10 11 13 10 9 10 10 10 9 9 9 8 8 9 11 10 11 11 11 8 9 7 7 7 7 7 7 6 6 6 6 5 5 6 5 4 4
4 6 2 4 2 2 7 6 6 6 3 3 4 0 3 3 9 10 7 8 6 7 5 7 5 4 5 5 4 3 3 0 2 3 4 4 5 7 8 9 9 9 8 7 8 9 9 8 8 12 14 12 9 9 11 12 12 10 8 7 7 6 8 11 11 11 11 9 8 9 8 7 7 6 6 6 6 7 6 6 8 8 6 6 6 6
7 7 7 6 8 7 5 6 8 4 2 2 5 3 1 2 6 9 7 7 5 3 3 4 4 3 3 4 5 5 4 3 5 6 6 6 7 6 6 8 10 12 12 11 12 12 11 12 12 12 13 13 11 11 11 12 12 11 10 8 7 7 9 9 9 10 11 9 8 9 8 8 8 7 6 6 5 5 5 6 6 6 6 5 3 3
Wind_Direction
99 132 172 186 192 193 194 161 163 160 151 108 83 102 169 163 266 277 290 272 3 90 247 235 263 271 276 268 269 275 342 316 291 277 266 265 262 255 249 243 243 245 245 251 235 239 236 232 223 218 207 217 215 216 204 201 205 204 203 193 207 203 192 186 186 187 190 199 206 214 211 217 209 210 209 216 215 211 211 205 204 201 206 207 199 197
66 145 226 207 200 181 163 135 109 76 52 133 129 124 170 188 140 217 128 4 325 127 293 42 317 270 260 272 269 274 311 268 248 255 259 257 252 255 254 257 250 247 278 285 277 266 269 252 239 220 209 197 201 217 201 202 205 204 199 198 207 188 193 197 196 193 196 201 202 201 214 216 207 203 206 217 214 216 216 217 212 207 204 204 204 202
83 181 226 213 158 98 100 122 79 116 114 49 141 164 103 254 243 292 274 344 338 76 271 357 335 279 265 263 267 250 244 251 242 223 243 249 261 254 254 255 262 272 266 270 260 270 262 264 261 226 221 215 214 215 204 212 206 201 200 205 199 195 194 201 198 191 203 202 205 202 209 204 216 227 214 218 209 205 217 220 218 215 210 208 210 202
106 280 240 166 134 108 63 97 101 73 63 106 98 101 197 242 117 246 285 18 355 70 301 322 314 286 280 271 265 274 244 256 260 250 256 242 251 252 246 247 257 264 273 274 264 261 253 250 260 240 230 223 217 219 207 202 202 201 204 202 198 197 198 199 201 201 203 192 184 186 169 194 189 200 202 207 203 203 217 226 221 224 214 210 213 207
186 241 41 124 136 136 133 127 124 128 156 11 122 126 129 172 217 146 211 329 351 61 56 330 297 298 336 346 337 326 333 321 293 329 287 262 239 264 296 293 257 266 269 277 284 270 263 263 242 223 229 226 218 219 212 202 202 200 202 203 199 195 197 199 196 197 174 145 135 114 71 70 74 22 173 194 230 215 213 221 218 224 220 218 217 213
267 271 130 101 89 80 107 113 187 134 143 328 228 168 193 179 142 248 16 92 21 345 353 46 354 312 304 300 247 282 339 332 302 333 290 285 321 307 275 265 267 257 249 250 265 271 267 258 277 272 260 232 235 228 221 210 209 204 209 201 196 193 191 195 194 184 168 178 174 166 173 192 196 215 195 210 217 208 211 217 208 216 215 223 223 217
198 1 148 159 132 109 91 141 218 136 161 118 255 173 166 144 123 128 65 70 2 139 342 41 126 270 323 303 302 319 338 311 320 283 284 313 304 299 278 280 274 268 279 269 273 280 286 280 288 273 235 231 233 250 313 215 213 209 202 195 194 195 195 190 183 173 174 181 189 194 200 205 207 216 226 221 217 207 214 198 205 210 206 216 222 225
113 45 69 62 99 112 127 127 211 141 120 202 244 121 109 104 123 148 98 106 187 247 301 38 94 240 303 289 260 308 319 312 329 324 329 324 323 315 308 294 282 270 259 268 273 294 297 294 272 279 285 250 251 269 206 212 205 206 206 192 198 196 191 188 174 178 184 192 196 201 212 214 219 219 230 202 216 203 186 201 212 207 211 210 219 224
133 161 128 106 75 106 171 210 172 128 119 217 199 133 124 135 134 109 87 101 94 43 286 335 317 283 256 268 311 354 343 326 314 311 309 318 320 321 325 324 303 276 267 266 302 322 320 303 295 278 301 299 273 329 196 204 208 209 200 194 184 192 186 188 180 184 196 201 198 204 208 222 228 231 237 206 201 205 192 209 212 212 215 215 217 223
350 156 224 148 129 180 230 278 142 121 93 253 132 91 93 80 67 87 98 79 352 62 274 245 236 199 280 276 331 331 252 265 264 289 297 299 303 303 318 324 327 340 352 351 270 280 304 304 301 269 281 360 0 359 59 90 143 177 173 186 185 203 190 189 188 192 201 205 198 205 214 224 231 226 244 200 223 217 195 223 214 213 215 217 220 222
247 309 165 86 179 190 136 48 148 271 120 129 104 77 37 38 23 27 61 81 58 351 252 248 311 153 296 277 231 144 207 198 244 301 297 316 332 334 332 334 350 349 342 339 332 322 320 295 315 20 62 347 4 7 49 58 87 137 174 181 193 212 196 192 198 193 204 204 202 212 215 221 229 224 217 224 239 224 221 229 224 215 219 216 224 222
14 355 56 270 93 97 104 83 18 56 89 121 93 123 69 353 13 29 347 33 137 271 261 264 228 111 184 291 297 240 275 230 194 216 309 318 314 312 319 335 343 345 339 331 344 346 343 349 352 16 24 4 343 8 11 355 37 144 183 169 200 227 204 203 204 201 214 208 216 221 220 224 227 220 214 221 231 217 224 225 229 222 226 228 228 226
39 95 262 326 201 131 108 88 1 20 5 81 87 63 112 238 38 290 12 261 216 200 226 358 172 352 243 232 252 277 251 250 224 210 225 287 294 308 328 340 333 326 334 341 342 340 343 336 325 338 333 344 359 329 303 290 282 244 186 180 197 238 220 212 202 207 214 215 220 219 224 230 224 223 222 226 233 221 224 224 232 219 229 226 229 223
271 284 340 291 24 223 135 125 145 117 354 96 127 129 97 106 77 244 277 249 306 292 268 324 14 270 245 275 249 250 268 198 226 226 232 224 256 287 305 322 330 327 311 309 318 314 309 309 315 306 307 310 303 272 249 254 245 244 216 197 195 236 215 211 208 215 218 224 226 222 225 227 219 228 224 230 230 227 224 219 229 226 227 227 225 221
116 305 253 143 221 165 188 158 175 161 170 204 94 145 174 145 156 205 196 209 217 206 287 281 64 232 111 210 200 213 232 296 279 274 273 265 249 261 284 284 308 350 0 355 350 347 335 333 330 317 307 298 295 299 296 272 226 189 215 208 216 238 235 208 215 214 225 232 230 227 227 229 221 229 227 232 227 227 225 222 230 232 230 231 232 225
199 197 269 270 282 162 171 245 107 92 43 36 153 83 88 224 143 140 208 142 218 345 354 227 214 194 160 258 275 259 306 290 304 304 339 300 294 349 1 13 349 339 347 353 359 353 347 331 324 327 326 313 297 287 288 289 282 240 234 213 221 228 232 217 221 225 226 233 230 228 227 227 225 230 235 243 234 235 222 229 224 236 229 233 237 235
49 235 327 316 48 139 160 145 94 136 180 226 108 203 207 133 97 96 76 23 102 43 255 165 306 295 297 322 286 346 31 325 358 338 34 32 331 18 32 2 341 336 346 359 358 348 339 346 345 337 325 326 325 321 302 290 272 257 264 248 252 253 254 242 232 235 234 240 236 235 229 231 229 227 229 233 233 229 228 230 233 234 236 235 230 237
152 227 317 97 206 340 255 101 95 31 145 96 174 230 185 142 118 128 215 352 66 191 266 88 226 298 22 278 319 329 84 346 112 71 52 43 40 50 12 23 2 352 322 303 315 308 296 296 314 328 321 304 298 300 309 309 310 290 282 280 283 281 264 253 244 244 235 235 236 237 234 235 230 232 236 233 238 228 232 237 238 242 247 235 226 221
119 98 311 349 104 297 348 116 31 356 34 142 197 193 113 233 216 316 88 254 136 277 274 301 265 255 184 237 339 58 128 150 138 120 92 86 71 70 60 38 16 2 14 14 358 353 354 352 340 329 315 309 295 294 295 299 302 294 270 250 244 264 262 263 260 250 247 230 236 230 232 231 234 233 238 238 236 232 236 242 236 237 242 245 225 225
118 142 284 329 127 289 17 107 199 189 358 52 91 77 110 100 161 122 201 172 123 243 50 289 40 248 205 216 192 192 201 164 135 118 135 119 111 99 65 48 32 21 6 351 350 342 336 332 324 322 325 328 331 331 315 300 301 284 273 266 266 274 277 281 274 268 265 256 246 251 245 243 233 229 230 230 227 233 235 237 232 236 239 232 223 228
168 112 195 291 298 76 190 206 213 156 148 76 94 181 168 37 224 107 43 131 178 173 184 254 309 284 257 219 191 217 158 169 153 151 161 154 141 154 169 133 15 350 357 346 336 325 328 331 333 333 330 327 326 306 305 304 297 289 306 299 296 293 300 292 278 260 261 259 254 254 253 253 249 249 237 234 224 233 239 240 231 232 229 218 230 211
105 176 181 133 95 224 243 257 164 178 187 176 172 189 175 132 143 157 253 41 95 124 231 136 260 232 271 184 197 211 189 167 175 140 158 171 171 199 243 253 227 23 312 286 305 308 321 336 338 336 341 346 354 352 348 339 331 322 316 293 304 303 281 288 294 284 278 264 258 258 264 267 259 252 252 249 245 238 239 237 234 230 222 229 232 199
144 132 105 176 204 200 221 359 289 304 74 178 170 228 169 160 108 127 191 250 42 259 107 165 300 271 247 348 246 247 173 170 172 139 147 176 202 215 263 270 266 234 276 287 299 303 304 299 309 322 322 331 348 341 336 338 342 333 330 334 321 301 287 267 274 286 274 271 267 263 263 266 261 254 250 250 250 249 248 241 229 210 221 231 233 212
93 101 100 321 320 318 317 315 52 68 122 346 322 87 134 192 175 169 160 180 167 169 163 292 248 255 285 346 333 6 106 154 157 150 156 208 225 254 254 273 259 262 260 258 260 270 286 325 346 356 357 355 357 352 341 325 324 329 331 323 322 312 301 308 303 300 290 279 271 266 268 261 258 254 248 246 249 250 249 246 245 230 229 230 220 222
152 271 135 122 28 346 342 343 350 330 114 194 168 207 172 110 80 128 98 85 148 219 176 133 233 271 273 339 16 70 92 132 173 218 206 119 220 227 240 242 244 248 242 226 214 213 219 5 15 14 0 354 347 343 349 352 344 337 323 320 313 303 298 299 308 308 296 287 288 283 270 266 258 255 251 248 253 252 252 246 244 232 233 235 236 234
174 176 138 154 175 180 193 195 211 203 192 202 205 170 181 160 147 117 208 163 211 259 164 191 242 246 298 355 282 192 216 253 270 254 265 213 165 212 237 227 226 297 359 2 1 7 3 355 360 1 353 350 354 352 347 346 343 333 319 310 293 292 304 300 309 294 295 299 294 290 282 274 269 258 256 256 258 255 255 251 242 240 239 227 238 232
171 149 186 183 192 209 214 199 62 110 92 185 227 171 190 187 176 174 115 150 213 212 172 236 228 231 248 229 227 225 208 189 242 273 195 236 261 299 352 7 8 4 10 4 357 352 359 3 352 341 344 346 343 347 344 345 343 344 340 334 335 312 299 305 315 306 301 297 287 287 283 283 275 267 266 262 261 265 259 251 247 242 243 232 235 235
87 189 221 198 219 223 194 180 210 160 174 203 180 193 188 176 181 173 180 218 201 81 256 229 196 239 239 213 243 245 261 289 305 353 11 1 352 333 349 6 3 10 0 358 6 3 352 337 341 345 340 341 343 338 342 343 342 340 339 334 332 336 334 322 319 308 300 294 289 278 279 277 280 281 275 275 272 266 261 259 253 246 248 237 236 236
150 195 235 141 238 213 205 194 169 183 191 193 193 182 184 188 177 187 213 222 164 198 231 232 151 219 249 179 213 230 204 220 48 44 352 282 301 336 354 4 24 359 346 360 350 350 351 344 333 333 336 334 337 342 342 342 343 343 340 335 333 338 333 329 327 312 300 293 279 276 274 281 284 286 284 282 277 272 267 261 256 253 245 238 243 239
123 233 188 165 201 163 218 160 184 172 179 147 195 194 192 181 193 200 214 217 203 216 230 258 178 234 248 163 204 229 156 148 169 358 348 331 301 295 321 29 36 347 349 341 331 333 333 328 329 329 331 336 341 340 341 343 342 343 338 334 335 334 328 345 326 312 305 293 284 285 287 287 288 285 284 281 274 270 269 267 260 253 247 242 240 243
143 270 110 126 160 235 215 131 127 161 152 197 237 209 196 200 205 208 214 222 221 279 294 266 255 270 247 175 235 254 206 88 56 119 242 245 299 357 55 69 42 346 331 318 325 322 321 321 323 329 337 337 338 337 335 334 334 335 335 337 337 335 335 339 327 321 303 295 289 289 291 290 284 282 277 270 270 270 269 267 261 252 249 247 243 241
82 231 45 78 165 276 205 154 134 71 73 128 251 223 211 199 208 219 218 203 174 216 230 245 265 258 269 167 193 242 216 148 153 187 222 281 97 109 75 33 2 341 333 321 307 307 314 327 330 333 331 329 328 333 338 339 340 338 335 334 334 331 332 336 335 332 327 323 323 320 309 297 292 290 285 283 276 273 270 268 262 255 250 250 246 242
119 125 125 118 158 260 311 130 117 86 45 312 250 228 211 204 220 139 131 182 214 205 211 209 234 247 204 172 132 257 137 143 158 183 163 91 119 106 102 39 339 313 316 311 306 305 307 310 313 308 313 318 319 325 326 328 328 327 325 327 325 327 331 331 329 328 324 325 330 325 325 322 318 310 305 296 291 286 282 272 266 259 255 251 247 244
82 89 113 283 147 179 114 115 115 114 203 222 232 201 157 203 203 162 189 213 214 172 209 215 243 267 142 124 169 183 170 219 161 208 155 148 146 154 171 280 283 277 282 283 286 295 300 313 312 308 299 296 298 301 303 302 295 299 303 306 312 319 317 320 319 324 319 320 324 322 321 321 317 312 305 301 297 293 285 277 267 265 258 260 255 239
146 110 153 222 116 218 131 111 131 216 229 228 42 148 182 193 153 195 221 225 216 216 240 265 262 256 246 212 174 181 196 172 107 131 127 145 127 132 138 254 289 297 292 294 303 304 303 300 308 313 318 319 319 315 324 324 323 317 313 316 315 311 310 314 315 317 317 316 318 321 322 322 317 311 309 304 297 292 283 274 274 270 259 251 248 241
187 168 139 148 142 30 107 170 223 224 210 327 240 221 301 156 202 185 252 247 223 204 205 230 239 246 254 236 107 168 171 149 104 157 155 169 150 131 92 342 301 300 306 303 308 312 320 318 310 305 305 312 323 325 331 320 328 334 324 323 314 314 315 312 314 311 314 316 319 320 319 318 313 309 308 304 299 291 283 276 265 267 263 254 256 248
199 152 151 216 174 213 184 219 238 356 315 269 258 241 168 176 155 184 238 242 213 200 195 221 238 244 238 106 153 153 128 107 130 211 259 198 196 191 137 294 283 279 262 280 279 290 301 306 310 306 307 309 312 317 320 321 327 326 321 324 324 325 322 325 320 320 320 317 318 318 318 317 310 307 305 302 298 291 283 278 275 265 252 256 253 249
161 185 180 205 221 189 215 243 254 227 244 251 235 261 229 174 161 171 191 262 270 207 201 201 224 235 182 146 144 155 135 107 170 232 227 239 225 195 270 277 282 272 279 285 295 286 294 303 308 307 312 314 314 309 307 314 320 320 315 312 315 320 319 322 315 316 316 312 315 312 312 309 305 302 303 302 296 291 287 279 272 270 245 243 251 247
360 30 124 193 200 171 201 218 224 222 239 239 250 198 187 174 154 133 167 243 255 201 194 182 216 231 193 161 152 135 128 187 238 217 212 209 220 182 254 264 256 259 268 266 272 290 297 292 291 296 309 307 303 302 309 311 315 314 309 310 312 313 310 310 311 317 318 315 313 311 308 305 301 295 295 295 291 289 290 287 279 277 257 247 249 252
153 169 151 196 217 216 202 216 230 215 255 258 235 262 236 136 122 109 203 260 236 157 175 171 196 202 168 142 139 137 158 198 206 230 193 168 244 245 201 303 308 294 282 277 278 260 271 289 313 309 305 303 297 305 312 316 321 314 308 309 316 314 311 309 312 310 308 306 307 306 305 303 302 296 292 291 291 287 278 284 290 278 265 259 249 257
167 132 201 206 201 221 228 258 353 299 279 235 226 224 133 177 137 171 213 235 193 174 179 159 167 164 147 146 153 132 224 169 177 180 93 113 12 332 276 233 254 270 281 282 272 266 257 268 269 281 289 293 296 302 305 314 317 310 309 310 313 305 302 305 307 308 306 306 306 306 304 301 294 297 295 284 284 289 286 279 274 279 271 267 266 262
202 175 208 192 210 209 216 231 239 280 226 180 297 142 162 122 222 208 231 214 151 180 194 165 148 167 145 154 163 150 160 183 96 72 36 62 215 253 272 270 267 266 249 246 260 277 267 276 277 278 282 280 282 287 297 303 300 293 300 304 295 289 297 301 302 303 305 304 303 302 301 301 300 290 288 296 295 293 290 282 276 267 265 271 266 259
178 187 180 195 191 219 203 234 223 231 254 147 124 358 281 168 230 180 132 28 181 162 153 198 160 173 143 163 196 167 151 94 122 124 193 234 229 273 290 302 307 309 315 320 324 308 301 294 287 281 277 271 265 269 270 269 281 294 302 300 293 301 302 299 299 300 300 300 299 299 299 299 300 302 305 299 297 290 287 293 290 276 262 257 258 254
188 183 180 209 183 196 203 214 215 225 188 178 160 205 189 199 184 152 129 136 229 166 158 147 209 176 177 124 155 162 172 159 104 160 215 210 230 269 279 296 309 316 312 295 274 295 318 310 296 297 301 306 303 281 259 238 261 266 273 281 291 300 302 303 300 298 295 293 292 295 297 299 301 299 298 297 299 293 286 288 281 277 260 245 242 251
219 196 179 194 183 177 202 211 233 217 168 196 107 161 222 229 164 179 146 149 153 215 176 131 160 166 184 139 108 125 73 58 334 318 11 314 314 308 312 302 302 301 308 312 317 316 320 312 310 309 304 300 301 302 302 287 289 296 291 289 304 300 302 299 298 293 288 288 287 287 288 294 293 294 294 293 288 290 285 284 281 276 269 242 250 242
322 194 102 96 267 94 316 177 202 5 99 46 25 197 165 99 58 106 129 132 151 132 160 148 161 139 146 159 112 104 119 174 40 317 320 315 312 307 310 314 315 313 314 320 326 336 332 326 319 316 313 310 315 314 312 300 273 290 291 298 298 295 297 299 300 298 291 290 288 285 289 292 289 283 279 285 276 260 264 269 278 268 275 261 248 244
258 166 150 181 263 162 248 194 158 172 95 43 108 31 48 83 93 93 83 70 113 118 94 76 106 103 109 103 114 147 161 183 207 270 274 280 300 309 321 325 328 338 335 328 329 332 331 334 325 320 318 310 313 314 304 307 301 281 291 301 305 302 298 297 294 291 290 289 292 292 290 286 288 294 289 282 283 273 264 258 257 264 267 256 249 250
276 184 158 207 177 178 235 295 38 19 271 267 228 125 109 84 69 58 84 102 101 80 82 82 89 78 81 88 116 115 139 2 42 345 341 330 322 324 319 320 321 322 319 312 312 321 315 312 308 306 308 304 308 310 300 297 296 296 294 296 301 304 302 295 291 291 292 293 293 290 289 285 283 285 289 287 280 282 283 267 242 249 248 241 242 241
200 123 204 185 187 262 24 6 284 48 21 358 5 43 73 121 112 97 90 92 92 94 85 65 62 90 85 95 97 109 86 12 25 339 314 296 292 291 303 313 313 312 315 323 318 319 312 307 306 301 301 302 309 310 306 304 301 302 299 296 299 301 301 295 293 287 285 287 289 283 280 273 276 275 280 286 285 264 248 252 258 246 254 264 255 251
94 181 207 108 125 186 186 203 160 125 216 239 248 263 65 101 118 118 109 85 77 96 105 102 76 62 76 70 80 87 99 75 339 340 324 323 323 328 330 330 326 325 322 320 314 311 309 309 309 310 307 304 311 311 309 307 306 307 303 298 298 299 292 292 295 294 289 288 284 282 283 276 270 266 264 266 274 288 293 260 235 225 231 261 274 263
176 195 149 169 175 216 230 197 180 136 87 161 159 140 108 109 129 115 116 120 105 91 106 126 128 87 71 65 56 58 39 18 359 356 335 329 322 320 322 328 328 326 324 327 325 324 326 319 317 311 308 309 317 311 307 304 304 309 309 304 300 301 294 292 293 290 288 287 282 281 278 276 275 265 256 251 250 261 272 288 305 272 240 228 234 253